Sarnia, Ontario

6:16 PM EDT on October 18, 2017 (GMT -0400)
Sarnia (Hadfield)

Weather History for CYZR - May, 2013

Change the Weather History Date:

Tuesday, May 28, 2013

  Actual Average Record
Temperature  
Mean Temperature 48 °F -  
Max Temperature 68 °F 71 °F 93 °F (1987)
Min Temperature 30 °F 55 °F 27 °F (2014)
Degree Days  
Heating Degree Days 17    
Moisture  
Dew Point 58 °F    
Average Humidity 95    
Maximum Humidity 100    
Minimum Humidity 28    
Precipitation  
Precipitation 0.00 in 0.10 in - ()
Sea Level Pressure  
Sea Level Pressure 29.94 in    
Wind  
Wind Speed 9 mph ()    
Max Wind Speed 20 mph    
Max Gust Speed 23 mph    
Visibility 6.7 miles    
Events Rain , Thunderstorm    
Averages and records for this station are not official NWS values.
T = Trace of Precipitation, MM = Missing Value Source: Averaged Metar Reports

Daily Weather History Graph

Daily Weather History Graph

Search for Another Location

Airport or City:

Trip Planner

Search our weather history database for the weather conditions in past years. The results will help you decide how hot, cold, wet, or windy it might be!

Date:

Astronomy

May. 28, 2013 Rise Set
Actual Time 5:55 AM EDT 8:58 PM EDT
Civil Twilight 5:20 AM EDT 9:32 PM EDT
Nautical Twilight 4:37 AM EDT 10:16 PM EDT
Astronomical Twilight 3:45 AM EDT 11:08 PM EDT
Moon No Moon Rise 9:44 AM EDT (5/28)
Length of Visible Light 16h 11m
Length of Day
15h 03m
Waning Gibbous, 83% of the Moon is Illuminated
May 28
Waning Gibbous
May 31
Last Quarter
Jun 8
New
Jun 16
First Quarter
Jun 23
Full

Hourly Weather History & Observations

Time (EDT) Temp. Dew Point Humidity Pressure Visibility Wind Dir Wind Speed Gust Speed Precip Events Conditions
12:00 AM 51.8 °F 44.6 °F 76% 30.07 in 9.0 mi SE 11.5 mph 20.7 mph N/A Rain Light Rain
12:59 AM 50.0 °F 46.4 °F 87% 30.06 in 6.0 mi SSE 11.5 mph 17.3 mph N/A Rain Light Rain
1:00 AM 50.0 °F 46.4 °F 87% 30.06 in 6.0 mi SSE 10.4 mph 17.3 mph N/A Rain Light Rain
1:05 AM 50.0 °F 46.4 °F 87% 30.06 in 5.0 mi SSE 12.7 mph - N/A Rain Light Rain
2:00 AM 34 °F 33 °F 93% 30.11 in - Calm Calm - -  
2:00 AM 50.0 °F 48.2 °F 94% 30.03 in 4.0 mi SE 10.4 mph - N/A Rain Light Rain
2:15 AM 50.0 °F 50.0 °F 100% 30.02 in 4.0 mi SE 10.4 mph - N/A Rain Light Rain
2:26 AM 50.0 °F 50.0 °F 100% 30.01 in 4.0 mi SE 11.5 mph - N/A Rain Light Rain
2:35 AM 50.0 °F 50.0 °F 100% 30.01 in 6.0 mi SE 10.4 mph - N/A Rain Light Rain
2:42 AM 50.0 °F 50.0 °F 100% 30.01 in 9.0 mi SE 9.2 mph - N/A Rain Light Rain
2:50 AM 50.0 °F 50.0 °F 100% 30.01 in 5.0 mi SE 10.4 mph - N/A Rain Light Rain
3:00 AM 50.0 °F 50.0 °F 100% 30.00 in 3.0 mi SE 10.4 mph - N/A Rain Light Rain
3:29 AM 51.8 °F 51.8 °F 100% 29.99 in 6.0 mi SE 10.4 mph - N/A Rain Light Rain
4:00 AM 51.8 °F 51.8 °F 100% 29.99 in 9.0 mi SSE 10.4 mph - N/A Rain Light Rain
4:03 AM 51.8 °F 51.8 °F 100% 29.99 in 9.0 mi SSE 12.7 mph - N/A   Overcast
4:34 AM 51.8 °F 51.8 °F 100% 29.96 in 9.0 mi SSE 13.8 mph - N/A   Overcast
5:00 AM 51.8 °F 51.8 °F 100% 29.96 in 9.0 mi SSE 13.8 mph - N/A   Overcast
5:08 AM 51.8 °F 51.8 °F 100% 29.96 in 9.0 mi SSE 16.1 mph - N/A   Overcast
6:00 AM 53.6 °F 51.8 °F 94% 29.97 in 9.0 mi SSE 12.7 mph - N/A   Overcast
6:24 AM 53.6 °F 51.8 °F 94% 29.97 in 9.0 mi SSE 10.4 mph - N/A   Overcast
7:00 AM 53.6 °F 53.6 °F 100% 29.97 in 7.0 mi SE 10.4 mph - N/A   Overcast
7:40 AM 53.6 °F 53.6 °F 100% 29.97 in 8.0 mi SSE 10.4 mph - N/A   Overcast
8:00 AM 46 °F 34 °F 51% 30.21 in - North 8.1 mph - -  
8:00 AM 55.4 °F 53.6 °F 94% 29.97 in 8.0 mi SSE 8.1 mph - N/A   Overcast
9:00 AM 55.4 °F 55.4 °F 100% 29.98 in 8.0 mi South 6.9 mph - N/A   Overcast
10:00 AM 57.2 °F 55.4 °F 94% 29.98 in 8.0 mi South 8.1 mph - N/A   Overcast
10:29 AM 59.0 °F 57.2 °F 94% 29.96 in 5.0 mi South 6.9 mph - N/A   Overcast
10:39 AM 59.0 °F 57.2 °F 94% 29.96 in 5.0 mi SSE 6.9 mph - N/A Rain Light Rain
10:45 AM 59.0 °F 57.2 °F 94% 29.94 in 6.0 mi SSE 10.4 mph - N/A Rain Light Rain
10:55 AM 59.0 °F 57.2 °F 94% 29.95 in 6.0 mi South 8.1 mph - N/A   Overcast
11:00 AM 57.2 °F 57.2 °F 100% 29.95 in 6.0 mi South 8.1 mph - N/A   Overcast
11:04 AM 57.2 °F 57.2 °F 100% 29.95 in 6.0 mi South 8.1 mph - N/A Rain Light Rain
11:07 AM 59.0 °F 57.2 °F 94% 29.94 in 5.0 mi SSE 8.1 mph - N/A Rain Light Rain
12:00 PM 59.0 °F 57.2 °F 94% 29.97 in 3.0 mi South 10.4 mph - N/A Rain Light Rain
12:32 PM 59.0 °F 59.0 °F 100% 29.96 in 3.0 mi South 10.4 mph - N/A Rain Light Rain
1:00 PM 59.0 °F 59.0 °F 100% 29.94 in 3.0 mi South 15.0 mph 23.0 mph N/A Rain Light Rain
1:16 PM 60.8 °F 59.0 °F 94% 29.92 in 4.0 mi South 13.8 mph 20.7 mph N/A   Overcast
2:00 PM 56 °F 32 °F 28% 30.23 in - North 4.6 mph - -  
2:00 PM 62.6 °F 62.6 °F 100% 29.91 in 4.0 mi South 12.7 mph - N/A   Overcast
2:18 PM 66.2 °F 64.4 °F 94% 29.89 in 6.0 mi SSE 13.8 mph - N/A   Mostly Cloudy
3:00 PM 66.2 °F 64.4 °F 94% 29.89 in 9.0 mi South 10.4 mph - N/A   Overcast
3:17 PM 66.2 °F 64.4 °F 94% 29.88 in 9.0 mi SSE 9.2 mph - N/A Thunderstorm Overcast
3:30 PM 66.2 °F 64.4 °F 94% 29.89 in 9.0 mi South 9.2 mph 17.3 mph N/A Thunderstorm Thunderstorm
3:36 PM 66.2 °F 64.4 °F 94% 29.91 in 9.0 mi NW 12.7 mph - N/A Rain , Thunderstorm Light Thunderstorms and Rain
3:41 PM 66.2 °F 64.4 °F 94% 29.92 in 5.0 mi NNW 19.6 mph - N/A Rain , Thunderstorm Thunderstorms and Rain
3:44 PM 62.6 °F 60.8 °F 94% 29.91 in 2.5 mi NNW 13.8 mph 23.0 mph N/A Rain , Thunderstorm Heavy Thunderstorms and Rain
3:45 PM 62.6 °F 60.8 °F 94% 29.92 in 1.8 mi NNW 11.5 mph 23.0 mph N/A Rain , Thunderstorm Heavy Thunderstorms and Rain
3:46 PM 62.6 °F 60.8 °F 94% 29.92 in 1.5 mi NW 9.2 mph 23.0 mph N/A Rain , Thunderstorm Heavy Thunderstorms and Rain
3:51 PM 60.8 °F 60.8 °F 100% 29.91 in 1.2 mi North 4.6 mph 19.6 mph N/A Rain , Thunderstorm Thunderstorms and Rain
4:00 PM 60.8 °F 60.8 °F 100% 29.91 in 1.2 mi North 10.4 mph 17.3 mph N/A Rain , Thunderstorm Thunderstorms and Rain
4:05 PM 59.0 °F 59.0 °F 100% 29.93 in 2.0 mi North 10.4 mph 17.3 mph N/A Rain , Thunderstorm Light Thunderstorms and Rain
4:06 PM 59.0 °F 59.0 °F 100% 29.93 in 2.0 mi NNW 10.4 mph 17.3 mph N/A Rain , Thunderstorm Light Rain
4:22 PM 59.0 °F 59.0 °F 100% 29.90 in 2.5 mi NE 10.4 mph - N/A Rain , Thunderstorm Rain
4:23 PM 59.0 °F 59.0 °F 100% 29.91 in 3.0 mi NE 10.4 mph - N/A Rain , Thunderstorm Rain
4:33 PM 59.0 °F 59.0 °F 100% 29.91 in 6.0 mi NE 6.9 mph - N/A Rain , Thunderstorm Light Rain
4:35 PM 59.0 °F 59.0 °F 100% 29.91 in 7.0 mi NE 5.8 mph - N/A Rain , Thunderstorm Light Rain
4:39 PM 59.0 °F 59.0 °F 100% 29.90 in 9.0 mi NNE 6.9 mph - N/A Rain , Thunderstorm Light Thunderstorms and Rain
4:52 PM 60.8 °F 59.0 °F 94% 29.91 in 7.0 mi NE 6.9 mph - N/A Rain , Thunderstorm Light Thunderstorms and Rain
4:54 PM 60.8 °F 59.0 °F 94% 29.90 in 7.0 mi ENE 6.9 mph - N/A Rain Light Rain
4:59 PM 60.8 °F 60.8 °F 100% 29.90 in 9.0 mi ENE 8.1 mph - N/A Rain Light Rain
5:00 PM 60.8 °F 60.8 °F 100% 29.90 in 9.0 mi ENE 8.1 mph - N/A Rain Light Rain
5:09 PM 62.6 °F 60.8 °F 94% 29.90 in 9.0 mi ESE 6.9 mph - N/A   Mostly Cloudy
5:11 PM 62.6 °F 60.8 °F 94% 29.90 in 9.0 mi ESE 6.9 mph - N/A   Mostly Cloudy
5:25 PM 62.6 °F 62.6 °F 100% 29.89 in 9.0 mi SE 6.9 mph - N/A   Mostly Cloudy
5:47 PM 66.2 °F 64.4 °F 94% 29.88 in 9.0 mi SE 9.2 mph - N/A   Mostly Cloudy
6:00 PM 66.2 °F 66.2 °F 100% 29.88 in 9.0 mi SE 10.4 mph - N/A   Mostly Cloudy
6:03 PM 66.2 °F 66.2 °F 100% 29.88 in 9.0 mi SE 9.2 mph - N/A   Mostly Cloudy
6:30 PM 68.0 °F 66.2 °F 94% 29.87 in 9.0 mi SE 13.8 mph - N/A   Mostly Cloudy
7:00 PM 68.0 °F 66.2 °F 94% 29.86 in 9.0 mi SSE 11.5 mph - N/A   Overcast
8:00 PM 47 °F 38 °F 61% 30.27 in - SE 3.5 mph - -  
8:00 PM 66.2 °F 66.2 °F 100% 29.85 in 9.0 mi SSE 10.4 mph - N/A   Overcast
8:34 PM 66.2 °F 66.2 °F 100% 29.86 in 9.0 mi SSE 12.7 mph - N/A   Mostly Cloudy
8:42 PM 66.2 °F 66.2 °F 100% 29.85 in 9.0 mi SSE 9.2 mph 18.4 mph N/A   Overcast
8:51 PM 66.2 °F 66.2 °F 100% 29.85 in 6.0 mi SSE 6.9 mph - N/A Rain Light Rain
8:52 PM 66.2 °F 66.2 °F 100% 29.85 in 5.0 mi SSE 6.9 mph - N/A Rain Light Rain
8:59 PM 66.2 °F 66.2 °F 100% 29.86 in 6.0 mi South 3.5 mph - N/A Rain , Thunderstorm Light Rain
9:00 PM 66.2 °F 66.2 °F 100% 29.86 in 7.0 mi SSE 4.6 mph - N/A Rain , Thunderstorm Light Rain
9:05 PM 66.2 °F 66.2 °F 100% 29.86 in 9.0 mi SSE 6.9 mph - N/A Thunderstorm Overcast
9:15 PM 66.2 °F 66.2 °F 100% 29.85 in 9.0 mi SSE 9.2 mph - N/A   Overcast
9:19 PM 66.2 °F 66.2 °F 100% 29.84 in 9.0 mi SSE 10.4 mph - N/A Thunderstorm Overcast
9:46 PM 66.2 °F 64.4 °F 94% 29.84 in 9.0 mi South 10.4 mph - N/A   Mostly Cloudy
10:00 PM 66.2 °F 64.4 °F 94% 29.84 in 9.0 mi South 10.4 mph - N/A   Overcast
10:36 PM 66.2 °F 64.4 °F 94% 29.83 in 9.0 mi South 12.7 mph 19.6 mph N/A Rain Light Rain
11:00 PM 66.2 °F 64.4 °F 94% 29.82 in 9.0 mi South 13.8 mph - N/A Rain Light Rain
11:47 PM 68.0 °F 66.2 °F 94% 29.83 in 9.0 mi SSW 12.7 mph - N/A Rain , Thunderstorm Light Thunderstorms and Rain